Regional Weather Roundup
Issued by NWS

Home | Current Version | Previous Version | Text Only | Print | Product List | Glossary On
Versions: 1 2 3 4 5 6 7 8 9 10 11 12 13 14 15 16 17 18 19 20 21 22 23 24 25 26 27 28 29 30 31 32 33 34 35 36 37 38 39 40 41 42 43 44 45 46 47 48 49 50
000
ASUS43 KOAX 302202
RWRNE
WEATHER ROUNDUP FOR NEBRASKA
NATIONAL WEATHER SERVICE OMAHA NE
500 PM CDT SAT MAY 30 2015

NOTES: SATELLITE DATA IS BEING USED TO AUGMENT CLOUD COVER ABOVE
       12000 FEET.
       "FAIR" INDICATES FEW OR NO CLOUDS BELOW 12,000 FEET WITH NO
       SIGNIFICANT WEATHER AND/OR OBSTRUCTIONS TO VISIBILITY.

  * THESE STATIONS DO NOT REPORT WEATHER SUCH AS RAIN...SNOW OR FOG.

NEZ001>004-019>022-054>056-302300-
NEBRASKA PANHANDLE

CITY           SKY/WX    TMP DP  RH WIND       PRES   REMARKS
SCOTTSBLUFF    SUNNY     69  51  52 SE16G23   30.17F
ALLIANCE       SUNNY     65  47  52 S12       30.20F
CHADRON        SUNNY     68  48  48 S14       30.16F
KIMBALL          N/A    N/A N/A N/A MISG        N/A
SIDNEY         SUNNY     64  48  56 SE10      30.23F
$$

NEZ057>060-069>072-079>082-302300-
SOUTHWEST NEBRASKA

CITY           SKY/WX    TMP DP  RH WIND       PRES   REMARKS
NORTH PLATTE   SUNNY     64  34  32 E8        30.24F
IMPERIAL       SUNNY     65  37  35 MISG      30.24F
LEXINGTON      SUNNY     65  37  34 NE8       30.23F
MCCOOK         SUNNY     66  35  31 NE8       30.24F
$$

NEZ005>010-023>029-035>040-094-302300-
NORTH CENTRAL NEBRASKA

CITY           SKY/WX    TMP DP  RH WIND       PRES   REMARKS
VALENTINE      SUNNY     62  32  32 E10       30.25F
AINSWORTH      SUNNY     60  35  38 NE3       30.26F
BROKEN BOW     SUNNY     66  34  30 E5        30.23F
ORD            SUNNY     64  39  39 NE9       30.23S
$$

NEZ041-046>049-061>064-073>077-083>087-302300-
SOUTH CENTRAL NEBRASKA

CITY           SKY/WX    TMP DP  RH WIND       PRES   REMARKS
GRAND ISLAND   SUNNY     68  37  32 N7        30.21F
AURORA         SUNNY     69  32  26 N12       30.20S
HASTINGS       SUNNY     66  44  45 N7G18     30.20F
KEARNEY *      SUNNY     64  41  42 N9        30.22F
$$

NEZ011>018-030>034-042>045-302300-
NORTHEAST NEBRASKA

CITY           SKY/WX    TMP DP  RH WIND       PRES   REMARKS
NORFOLK        SUNNY     67  40  37 N13       30.21F
ALBION         SUNNY     64  42  44 N8G16     30.22F
BLAIR          SUNNY     67  41  37 N13       30.16F
COLUMBUS *     SUNNY     68  39  34 NE12G20   30.21F
FREMONT        SUNNY     68  39  34 N12       30.19S
TEKAMAH        SUNNY     71  41  33 N17G24    30.17F
$$

NEZ050>053-065>068-078-088>093-302300-
SOUTHEAST NEBRASKA

CITY           SKY/WX    TMP DP  RH WIND       PRES   REMARKS
LINCOLN        SUNNY     70  41  34 N16       30.17F
OMAHA EPPLEY   MOSUNNY   70  41  34 NE13      30.16S
BEATRICE       CLOUDY    66  46  47 NE10G16   30.16F
FALLS CITY     CLOUDY    65  53  65 N14       30.12F
NEBRASKA CITY  SUNNY     67  45  45 N10G18    30.14F
PLATTSMOUTH    SUNNY     67  42  41 N12G17    30.16S
$$

NEZ044-045-051>053-067-302300-
OMAHA AREA

CITY           SKY/WX    TMP DP  RH WIND       PRES   REMARKS
OMAHA EPPLEY   MOSUNNY   70  41  34 NE13      30.16S
BLAIR          SUNNY     67  41  37 N13       30.16F
FREMONT        SUNNY     68  39  34 N12       30.19S
OFFUTT AFB     SUNNY     69  44  40 N10G18    30.14F
PLATTSMOUTH    SUNNY     67  42  41 N12G17    30.16S
WAHOO          FAIR      69  38  32 N14G25    30.17F
$$



USA.gov is the U.S. government's official web portal to all federal, state and local government web resources and services.